| time (UTC) | temp F | wind direction | speed knots | gust knots | rain 1hr in | rain 24hr in | rain mn in | humidity % | barometer mb |
| 20260906124611 | 72 | 0 | 0.0 | 0.0 | 0.00 | 1.35 | 1.35 | 100 | 1014.6 |
| 20260906123103 | 70 | 0 | 0.0 | 0.9 | 0.00 | 1.35 | 1.35 | 100 | 1014.6 |
| 20260906121607 | 69 | 0 | 0.0 | 0.0 | 0.00 | 1.35 | 1.35 | 100 | 1014.5 |
| 20260906120112 | 69 | 0 | 0.0 | 0.0 | 0.00 | 1.35 | 1.35 | 100 | 1014.3 |
| 20260906114558 | 68 | 0 | 0.0 | 0.0 | 0.00 | 1.35 | 1.35 | 100 | 1014.2 |
| 20260906113102 | 69 | 0 | 0.0 | 0.0 | 0.00 | 1.35 | 1.35 | 100 | 1014.2 |
| 20260906111554 | 69 | 0 | 0.0 | 0.0 | 0.00 | 1.35 | 1.35 | 100 | 1014.1 |
| 20260906110057 | 69 | 0 | 0.0 | 0.0 | 0.00 | 1.35 | 1.35 | 99 | 1014.0 |
| 20260906104601 | 69 | 0 | 0.0 | 0.0 | 0.00 | 1.35 | 1.35 | 99 | 1013.9 |
| 20260906103100 | 69 | 0 | 0.0 | 0.0 | 0.00 | 1.35 | 1.35 | 99 | 1013.8 |
| 20260906101557 | 69 | 0 | 0.0 | 0.0 | 0.00 | 1.35 | 1.35 | 99 | 1013.8 |
| 20260906100100 | 69 | 0 | 0.0 | 0.0 | 0.00 | 1.35 | 1.35 | 99 | 1014.0 |
| 20260906094601 | 70 | 0 | 0.0 | 0.0 | 0.00 | 1.35 | 1.35 | 99 | 1014.4 |
| 20260906093100 | 70 | 0 | 0.0 | 0.0 | 0.00 | 1.35 | 1.35 | 99 | 1014.0 |
| 20260906091555 | 70 | 0 | 0.0 | 0.0 | 0.00 | 1.35 | 1.35 | 99 | 1013.9 |
| 20260906090103 | 70 | 0 | 0.0 | 0.9 | 0.00 | 1.35 | 1.35 | 99 | 1013.5 |
| 20260906084601 | 70 | 0 | 0.0 | 0.0 | 0.00 | 1.35 | 1.35 | 99 | 1013.4 |
| 20260906083100 | 70 | 0 | 0.0 | 0.0 | 0.00 | 1.35 | 1.35 | 99 | 1013.5 |
| 20260906081554 | 70 | 0 | 0.0 | 0.0 | 0.00 | 1.35 | 1.35 | 99 | 1013.7 |
| 20260906074603 | 71 | 0 | 0.0 | 0.9 | 0.00 | 1.35 | 1.35 | 99 | 1013.8 |
| 20260906073105 | 71 | 0 | 0.0 | 0.9 | 0.01 | 1.35 | 1.35 | 98 | 1013.9 |
| 20260906071604 | 71 | 0 | 0.0 | 0.9 | 0.03 | 1.35 | 1.35 | 98 | 1014.1 |
| 20260906070058 | 71 | 0 | 0.0 | 0.9 | 0.22 | 1.35 | 1.35 | 98 | 1014.4 |
| 20260906064602 | 71 | 0 | 0.0 | 0.0 | 0.57 | 1.35 | 1.35 | 98 | 1014.3 |
| 20260906063104 | 71 | 0 | 0.0 | 1.7 | 1.17 | 1.34 | 1.34 | 98 | 1015.2 |
| 20260906061626 | 72 | 0 | 0.0 | 1.7 | 1.32 | 1.32 | 1.32 | 97 | 1016.0 |
| 20260906054601 | 73 | 0 | 0.0 | 4.3 | 0.78 | 0.78 | 0.78 | 95 | 1016.6 |
| 20260906053104 | 76 | 103 | 0.9 | 5.2 | 0.14 | 0.14 | 0.14 | 89 | 1016.0 |
| 20260906051609 | 76 | 0 | 0.0 | 4.3 | 0.00 | 0.00 | 0.00 | 81 | 1014.7 |
| 20260906050219 | 78 | 133 | 0.0 | 2.6 | 0.00 | 0.00 | 0.00 | 78 | 1013.7 |
| 20260906044559 | 77 | 150 | 0.0 | 1.7 | 0.00 | 0.00 | 0.00 | 83 | 1014.0 |
| 20260906043055 | 78 | 0 | 0.0 | 0.9 | 0.00 | 0.00 | 0.00 | 80 | 1014.0 |
| 20260906041602 | 78 | 0 | 0.0 | 0.0 | 0.00 | 0.00 | 0.00 | 83 | 1014.0 |
| 20260906040106 | 78 | 0 | 0.0 | 0.0 | 0.00 | 0.00 | 0.00 | 84 | 1014.1 |
| 20260906034605 | 77 | 0 | 0.0 | 0.9 | 0.00 | 0.00 | 0.00 | 85 | 1014.3 |
| 20260906033059 | 77 | 0 | 0.0 | 2.6 | 0.00 | 0.00 | 0.00 | 84 | 1014.2 |
| 20260906031557 | 78 | 0 | 0.0 | 0.0 | 0.00 | 0.00 | 0.00 | 83 | 1014.2 |
| 20260906030100 | 77 | 0 | 0.0 | 0.0 | 0.00 | 0.00 | 0.00 | 84 | 1014.1 |
| 20260906024559 | 78 | 0 | 0.0 | 0.0 | 0.00 | 0.00 | 0.00 | 83 | 1014.0 |
| 20260906023107 | 78 | 0 | 0.0 | 0.0 | 0.00 | 0.00 | 0.00 | 82 | 1014.0 |
| 20260906021604 | 78 | 0 | 0.0 | 0.0 | 0.00 | 0.00 | 0.00 | 82 | 1013.3 |
| 20260906020101 | 77 | 0 | 0.0 | 0.0 | 0.00 | 0.00 | 0.00 | 82 | 1013.1 |
| 20260906014605 | 78 | 0 | 0.0 | 0.0 | 0.00 | 0.00 | 0.00 | 81 | 1012.6 |
| 20260906013059 | 78 | 0 | 0.0 | 0.0 | 0.00 | 0.00 | 0.00 | 80 | 1012.7 |
| 20260906011606 | 78 | 0 | 0.0 | 0.9 | 0.00 | 0.00 | 0.00 | 79 | 1013.0 |
| 20260906004604 | 79 | 0 | 0.0 | 0.0 | 0.00 | 0.00 | 0.00 | 76 | 1013.1 |
| 20260906003101 | 80 | 0 | 0.0 | 0.0 | 0.00 | 0.00 | 0.00 | 74 | 1013.2 |
| 20260906001558 | 81 | 0 | 0.0 | 0.9 | 0.00 | 0.00 | 0.00 | 73 | 1013.0 |
| 20260906000100 | 82 | 0 | 0.0 | 0.0 | 0.00 | 0.00 | 0.00 | 70 | 1013.2 |
| 20260905234555 | 82 | 0 | 0.0 | 0.0 | 0.00 | 0.00 | 0.00 | 70 | 1013.2 |
| 20260905233114 | 82 | 0 | 0.0 | 0.9 | 0.00 | 0.00 | 0.00 | 69 | 1013.3 |
| 20260905231558 | 83 | 0 | 0.0 | 2.6 | 0.00 | 0.00 | 0.00 | 70 | 1013.2 |
| 20260905224601 | 84 | 0 | 0.0 | 0.9 | 0.00 | 0.00 | 0.00 | 66 | 1012.9 |
| 20260905223058 | 85 | 62 | 0.9 | 4.3 | 0.00 | 0.00 | 0.00 | 65 | 1012.7 |
| 20260905221604 | 85 | 70 | 0.9 | 8.7 | 0.00 | 0.00 | 0.00 | 63 | 1013.1 |
| 20260905214556 | 89 | 39 | 2.6 | 11.3 | 0.00 | 0.00 | 0.00 | 60 | 1013.6 |
| 20260905213113 | 98 | 0 | 0.0 | 5.2 | 0.00 | 0.00 | 0.00 | 50 | 1012.7 |
| 20260905211610 | 98 | 44 | 0.9 | 5.2 | 0.00 | 0.00 | 0.00 | 50 | 1012.8 |
| 20260905210109 | 99 | 283 | 0.9 | 6.1 | 0.00 | 0.00 | 0.00 | 50 | 1012.8 |
| 20260905204555 | 100 | 254 | 0.0 | 2.6 | 0.00 | 0.00 | 0.00 | 49 | 1012.6 |
| 20260905203102 | 98 | 0 | 0.0 | 2.6 | 0.00 | 0.00 | 0.00 | 50 | 1012.8 |
| 20260905201600 | 95 | 182 | 0.0 | 5.2 | 0.00 | 0.00 | 0.00 | 55 | 1013.1 |
| 20260905200103 | 98 | 341 | 0.9 | 4.3 | 0.00 | 0.00 | 0.00 | 51 | 1013.3 |
| 20260905194556 | 95 | 0 | 0.9 | 2.6 | 0.00 | 0.00 | 0.00 | 54 | 1013.6 |
| 20260905193104 | 95 | 291 | 0.9 | 3.5 | 0.00 | 0.00 | 0.00 | 56 | 1013.9 |
| 20260905191558 | 95 | 0 | 0.0 | 2.6 | 0.00 | 0.00 | 0.00 | 56 | 1014.0 |
| 20260905184557 | 99 | 20 | 1.7 | 5.2 | 0.00 | 0.00 | 0.00 | 50 | 1014.2 |
| 20260905183118 | 98 | 304 | 0.0 | 7.0 | 0.00 | 0.00 | 0.00 | 50 | 1014.4 |
| 20260905181558 | 98 | 32 | 0.9 | 6.1 | 0.00 | 0.00 | 0.00 | 51 | 1014.6 |
| 20260905180105 | 96 | 45 | 0.0 | 4.3 | 0.00 | 0.00 | 0.00 | 56 | 1014.8 |
| 20260905174601 | 95 | 76 | 0.9 | 5.2 | 0.00 | 0.00 | 0.00 | 58 | 1015.1 |
| 20260905173056 | 94 | 98 | 0.9 | 4.3 | 0.00 | 0.00 | 0.00 | 56 | 1015.1 |
| 20260905171556 | 94 | 13 | 2.6 | 5.2 | 0.00 | 0.00 | 0.00 | 57 | 1015.3 |
| 20260905164558 | 93 | 56 | 0.9 | 6.1 | 0.00 | 0.00 | 0.00 | 59 | 1015.5 |
| 20260905163106 | 92 | 34 | 1.7 | 5.2 | 0.00 | 0.00 | 0.00 | 59 | 1015.7 |
| 20260905161600 | 92 | 86 | 0.9 | 4.3 | 0.00 | 0.00 | 0.00 | 60 | 1015.8 |
| 20260905160101 | 92 | 0 | 0.0 | 0.9 | 0.00 | 0.00 | 0.00 | 62 | 1016.1 |
| 20260905154557 | 90 | 0 | 0.0 | 3.5 | 0.00 | 0.00 | 0.00 | 65 | 1016.3 |
| 20260905153107 | 89 | 53 | 0.0 | 2.6 | 0.00 | 0.00 | 0.00 | 64 | 1016.1 |
| 20260905151608 | 89 | 0 | 0.0 | 2.6 | 0.00 | 0.00 | 0.00 | 66 | 1016.2 |
| 20260905150059 | 89 | 109 | 0.0 | 1.7 | 0.00 | 0.00 | 0.00 | 66 | 1016.2 |
| 20260905144559 | 88 | 0 | 0.0 | 2.6 | 0.00 | 0.00 | 0.00 | 70 | 1016.4 |
| 20260905143103 | 87 | 46 | 0.9 | 2.6 | 0.00 | 0.00 | 0.00 | 73 | 1016.4 |
| 20260905141621 | 83 | 0 | 0.0 | 0.9 | 0.00 | 0.00 | 0.00 | 82 | 1016.5 |
| 20260905140108 | 80 | 0 | 0.0 | 0.0 | 0.00 | 0.00 | 0.00 | 87 | 1016.5 |
| 20260905134556 | 79 | 0 | 0.0 | 0.0 | 0.00 | 0.00 | 0.00 | 90 | 1016.5 |
| 20260905133101 | 77 | 0 | 0.0 | 0.0 | 0.00 | 0.00 | 0.00 | 93 | 1016.5 |
| 20260905131618 | 76 | 0 | 0.0 | 0.0 | 0.00 | 0.00 | 0.00 | 96 | 1016.5 |
| 20260905130105 | 75 | 0 | 0.0 | 0.0 | 0.00 | 0.00 | 0.00 | 98 | 1016.6 |